www.pogodaiklimat.ru

Погода и климат >> Архив погоды >> Беларусь >> Кличев


ПОГОДА в Кличеве

  • Прогноз погоды в Кличеве
  • Монитор погоды в Кличеве
  • Климат города

АРХИВ ПОГОДЫ в Кличеве

Время (UTC), дата Ветер
(напр.,м/с)
 
Видим.   Явления Облачность Т
(С)
Тd
(С)
f
(%)
Тe
(С)
Тes
(С)
Комфортность P
(гПа)
Po
(гПа)
Тmin
(С)
Tmax
(С)
R
(мм)
R24
(мм)
S
(см)
06 9.12 Ю 2 200 м туман [диам. гололёда 2 мм] ?/? 0.0 0.0 100 -4 -4 1003.7 984.5 -1.7 0.8 7
09 9.12 Ю 1 200 м туман ?/? 0.0 0.0 100 -2 -2 1003.4 984.2
12 9.12 Ю 2 2000 м дымка {туман} 10/10 300 м
[Frnb]
+0.6 +0.3 98 -3 -3 1002.1 982.9
15 9.12 Ю 2 200 м туман ?/? +0.1 +0.1 100 -4 -4 1001.2 982.0
18 9.12 Ю 3 2000 м в посл. час туман 10/10 300 м
[St]
+0.2 -0.1 98 -5 -5 1000.7 981.5 +0.7
21 9.12 Ю 1 1000 м дымка 10/10 300 м
[St]
+0.5 +0.2 98 -2 -2 1000.0 980.9
00 10.12 Ю 2 1000 м дымка 10/10 300 м
[St]
+1.0 +0.7 98 -3 -3 999.2 980.1
03 10.12 ЮЗ 1 4000 м дымка 10/10 300 м
[St]
+1.5 +1.2 98 -1 -1 999.1 980.1
06 10.12 Ю 1 4000 м дымка 10/10 300 м
[St]
+1.7 +1.2 96 -0 -0 999.8 980.8 0.0 6
09 10.12 Ю 2 4000 м слабый дождь 10/10 400 м
[Frnb]
+1.6 +1.3 98 -2 -2 1000.9 981.8
12 10.12 Ю 1 200 м туман {дождь} ?/? +1.7 +1.7 100 -0 -0 1001.5 982.4
15 10.12 Ю 2 200 м туман ?/? +1.2 +1.2 100 -3 -3 1002.9 983.8
18 10.12 Ю 2 200 м слабый дождь {туман} ?/? +1.2 +1.2 100 -3 -3 1003.4 984.3 +1.7 2
21 10.12 Ю 2 200 м туман {дождь} ?/? +1.1 +1.1 100 -3 -3 1004.2 985.0
00 11.12 Ю 2 200 м туман {дождь} ?/? +0.6 +0.6 100 -3 -3 1005.0 985.8
03 11.12 Ю 1 200 м туман ?/? +0.6 +0.6 100 -2 -2 1005.7 986.5
06 11.12 ЮВ 1 200 м туман ?/? +0.6 +0.6 100 -2 -2 1007.0 987.8 +0.5 1 4
09 11.12 штиль 0 200 м туман ?/? +0.9 +0.9 100 -1 -1 1009.0 989.7
12 11.12 штиль 0 200 м туман ?/? +1.5 +1.5 100 0 0 1009.9 990.7
15 11.12 ЮВ 1 200 м туман ?/? +1.2 +1.2 100 -1 -1 1012.1 992.8
18 11.12 ЮВ 1 200 м туман ?/? +0.9 +0.9 100 -1 -1 1013.8 994.4 +1.7
21 11.12 штиль 0 200 м туман ?/? +0.5 +0.5 100 -1 -1 1015.0 995.6
00 12.12 штиль 0 200 м туман ?/? +0.5 +0.5 100 -1 -1 1015.6 996.2
03 12.12 СВ 1 200 м туман ?/? +0.1 +0.1 100 -2 -2 1016.1 996.6
06 12.12 СВ 2 1000 м дымка {туман} 10/10 300 м
[St]
+0.5 +0.2 98 -3 -3 1017.1 997.7 +0.1 2
09 12.12 СВ 1 1000 м дымка 10/10 300 м
[St]
+0.8 +0.5 98 -1 -1 1017.7 998.3
12 12.12 СВ 1 4000 м дымка 10/10 300 м
[St]
+0.6 +0.3 98 -2 -2 1017.4 998.0
15 12.12 В 7-10
{11}
4000 м дымка 9/9 900 м
[Sc]
+1.2 +0.7 96 -6 -6 1017.4 998.0
18 12.12 ЮВ 8-10
{12}
4000 м дымка 9/9 900 м
[Sc]
+1.0 +0.5 96 -6 -6 1017.4 998.0 +1.4
21 12.12 С 7-10
{12}
10 км 9/9 800 м
[Sc]
+0.9 -0.8 88 -6 -6 1017.5 998.1
00 13.12 С 8-11
{13}
10 км 9/9 900 м
[Sc]
+0.6 -1.4 86 -7 -7 1017.2 997.8
03 13.12 С 7-10
{12}
4000 м слабый снег 10/10 400 м
[Frnb]
-0.3 -1.5 92 -8 -8 1017.3 997.8
06 13.12 С 5
{12}
4000 м слабый снег 10/10 400 м
[Frnb]
-0.8 -1.5 95 -7 -7 1017.7 998.1 -0.8 2 4
09 13.12 С 4 4000 м слабый снег 10/10 450 м
[Frnb]
-0.4 -1.1 95 -6 -6 1018.1 998.6
12 13.12 С 4 4000 м слабый снег 10/10 420 м
[Frnb]
0.0 -0.6 96 -6 -6 1017.9 998.4
15 13.12 С 3 10 км дымка {снег} 9/9 840 м
[Sc]
-0.1 -0.5 97 -5 -5 1018.8 999.3
18 13.12 С 4 4000 м слабый снег 10/10 420 м
[Frnb]
-0.2 -0.6 97 -6 -6 1019.6 1000.1 +0.1 0.9
21 13.12 СВ 2 4000 м дымка {снег} 10/10 400 м
[Frnb]
+0.2 -0.4 96 -4 -4 1020.9 1001.4
00 14.12 В 2 4000 м дымка {снег} 10/10 400 м
[Frnb]
-0.2 -0.6 97 -4 -4 1022.3 1002.7
03 14.12 СВ 1 4000 м дымка 9/9 900 м
[Sc]
-0.3 -0.7 97 -3 -3 1023.3 1003.7
06 14.12 С 1 4000 м дымка 9/9 900 м
[Sc]
-0.3 -0.9 96 -3 -3 1024.3 1004.7 -0.4 0.4 5
09 14.12 СВ 2 4000 м дымка 10/10 400 м
[Frnb]
-0.1 -1.1 93 -4 -4 1025.8 1006.1
12 14.12 СВ 2 4000 м слабый снег 10/10 400 м
[Frnb]
-0.3 -0.9 96 -4 -4 1026.6 1006.9
15 14.12 СВ 2 4000 м дымка {снег} 10/10 400 м
[Frnb]
-0.8 -1.5 95 -5 -5 1027.6 1007.9
18 14.12 СВ 3 4000 м дымка {снег} 10/10 400 м
[Frnb]
-1.1 -2.1 93 -6 -6 1028.9 1009.1 +0.1 0.8
21 14.12 СВ 2 4000 м дымка 10/10 400 м
[Frnb]
-1.3 -2.4 92 -5 -5 1029.6 1009.8
00 15.12 СВ 1 4000 м слабый снег 10/10 400 м
[Frnb]
-1.4 -2.4 93 -4 -4 1030.0 1010.2
03 15.12 СВ 1 4000 м дымка {снег} 10/10 420 м
[Frnb]
-1.8 -2.9 92 -4 -4 1030.7 1010.8
06 15.12 СВ 1 4000 м дымка {снег} 9/9 700 м
[Sc]
-2.1 -3.1 93 -4 -4 1031.9 1012.0 -2.1 0.2 5
09 15.12 СВ 3 10 км 9/9 800 м
[Sc]
-1.1 -2.7 89 -6 -6 1032.6 1012.7
12 15.12 СВ 3 10 км 9/9 800 м
[Sc]
-1.0 -2.9 87 -6 -6 1032.9 1013.0
15 15.12 СВ 4 4000 м дымка 9/9 800 м
[Sc]
-1.9 -2.7 94 -8 -8 1033.6 1013.7
18 15.12 В 4 4000 м дымка 9/9 800 м
[Sc]
-2.2 -3.3 92 -8 -8 1034.2 1014.2 -0.7
21 15.12 СВ 4 4000 м дымка 9/9 800 м
[Sc]
-2.2 -3.6 90 -8 -8 1034.2 1014.2
00 16.12 В 3 4000 м дымка 9/9 800 м
[Sc]
-2.0 -3.0 93 -7 -7 1033.9 1013.9
03 16.12 В 4
{10}
4000 м дымка 9/9 900 м
[Sc]
-1.9 -2.9 93 -8 -8 1033.5 1013.6

 

Местоположение метеостанции Кличев (Могилевская область, Беларусь): широта 53.50 долгота 29.32 высота над уровнем моря 155 м.

В архиве по умолчанию представлена погода в Кличеве за последнюю неделю. Архивные данные за месяц целиком и за предыдущие месяцы, начиная с января 2011 года, Вы можете получить, выбрав интересующий диапазон дат из раскрывающегося списка и нажав кнопку "Ввод!".


*Определитесь, кто Вы:
робот инопланетянин человек

Внимание! Время в таблицах - всемирное. Для получения местного времени необходимо прибавить поправку, которая в Кличеве равна 3 ч.

Смотрите также архив погоды в соседних городах и на ближайших метеорологических станциях:

Погода в Бобруйске (Могилевская область, Беларусь) (35 км)
Погода в Березино (Минская область, Беларусь) (43 км)
Погода в Могилеве (Могилевская область, Беларусь) (72 км)
Погода в Марьиной Горке (Минская область, Беларусь) (79 км)
Погода в Могилев городе (Могилевская область, Беларусь) (80 км)
Погода в Жлобине (Гомельская область, Беларусь) (82 км)
Погода в Борисове (Минская область, Беларусь) (101 км)
Погода в Октябре (Гомельская область, Беларусь) (101 км)
Погода в Славгороде (Могилевская область, Беларусь) (111 км)
Погода в Минске (город Минск, Беларусь) (121 км)

Пояснения к столбцам:

Ветер - указаны скорость ветра в м/с - средняя за 10 мин, порывы в срок и между сроками (в фигурных скобках) и направление, откуда дует ветер: С - северный, СВ - северо-восточный, В - восточный, ЮВ - юго-восточный, Ю - южный, ЮЗ - юго-западный, З - западный, СЗ - северо-западный.
Видимость - горизонтальная дальность видимости в метрах или километрах. При видимости от 1 до 10 км при отсутствии осадков обычно наблюдается дымка, при ухудшении видимости до 1 км и менее - туман. В сухую погоду видимость может ухудшаться дымом, пылью или мглою.
Явления - указаны атмосферные явления, наблюдавшиеся в срок или в последний час перед сроком; фигурными скобками обозначены явления, наблюдавшиеся между сроками (за 1-3 часа до срока); квадратными скобками обозначены град или гололедные отложения с указанием их диаметра в мм.
Облачность - указаны через наклонную черту общая и нижняя облачность в баллах и высота нижней границы облаков в метрах; квадратными скобками обозначены формы облаков: Ci - перистые, Cs - перисто-слоистые, Cc - перисто-кучевые, Ac - высококучевые, As - высокослоистые, Sc - слоисто-кучевые, Ns - слоисто-дождевые, Cu - кучевые, Cb - кучево-дождевые. Подробнее классификацию облаков см. в Атласе облаков (PDF).
T - Температура воздуха - температура, измеренная на высоте 2 м над землей.
Td - Температура точки росы - температура, при понижении до которой содержащийся в воздухе водяной пар достигнет насыщения.
f - Относительная влажность воздуха - влажноcть воздуха, измеренная на высоте 2 м над землей.
Te - Эффективная температура - температура, которую ощущает одетый по сезону человек в тени. Характеристика душности погоды. При расчете учитывается влияние влажности воздуха и скорости ветра на теплоощущения человека.
Tes - Эффективная температура на солнце - температура, которую ощущает человек, с поправкой на солнечный нагрев. Характеристика знойности погоды. Зависит от высоты солнца над горизонтом, облачности и скорости ветра. Ночью, в пасмурную погоду, а также при ветре 12 м/с и более поправка равна нулю.
P - Атмосферное давление - приведенное к уровню моря атмосферное давление.
Po - Атмосферное давление - измеренное на уровне метеостанции атмосферное давление.
Tmin - Минимальная температура - минимум температуры воздуха на высоте 2 м над землей.
Tmax - Максимальная температура - максимум температуры воздуха на высоте 2 м над землей.
R - Количество осадков - Количество выпавших осадков за период времени, мм. При наведении курсора мыши на число - период времени, за который выпало указанное количество осадков.
R24 - Количество осадков - Количество выпавших осадков за 24 часа, мм.
S - Снежный покров - Высота снежного покрова, см. При наведении курсора мыши на число - состояние снежного покрова и степень покрытия местности в баллах.